LVIRU SABE-SAZM

Flight info

Callsign LVIRU
Flight time 0h 55m
Altitude 27000
Route SABE 31 PAL9 GBE UW29 VOTRA VOTR2U SAZM NIRSU R31
Aircraft LJ35/L-S/C

Departure

Time 2026-05-04 01:53
Airport Aeroparque Jorge Newbery (SABE)

Arrival

Time 2026-05-04 02:48
Airport Ástor Piazzola International Airport (SAZM)
Time Latitude Longitude Altitude Speed Heading
2026-05-04 01:37 -34.56481 -58.40874 21 ft 0 kts 34°
2026-05-04 01:48 -34.56480 -58.40874 21 ft 0 kts 34°
2026-05-04 01:48 -34.56478 -58.40869 21 ft 2 kts 83°
2026-05-04 01:48 -34.56481 -58.40861 21 ft 0 kts 128°
2026-05-04 01:48 -34.56488 -58.40850 22 ft 5 kts 128°
2026-05-04 01:49 -34.56485 -58.40787 21 ft 12 kts 64°
2026-05-04 01:49 -34.56480 -58.40774 21 ft 0 kts 63°
2026-05-04 01:51 -34.56463 -58.40733 20 ft 11 kts 66°
2026-05-04 01:51 -34.56400 -58.40720 19 ft 10 kts 305°
2026-05-04 01:52 -34.56398 -58.40723 19 ft 0 kts 305°
2026-05-04 01:52 -34.56384 -58.40747 20 ft 18 kts 304°
2026-05-04 01:52 -34.56135 -58.41191 22 ft 117 kts 304°
2026-05-04 01:53 -34.55525 -58.42302 417 ft 185 kts 308°
2026-05-04 01:53 -34.54569 -58.43411 1675 ft 196 kts 336°
2026-05-04 01:53 -34.53179 -58.43532 3124 ft 215 kts 12°
2026-05-04 01:53 -34.51865 -58.42526 4591 ft 237 kts 44°
2026-05-04 01:54 -34.51133 -58.40677 6050 ft 254 kts 77°
2026-05-04 01:54 -34.51258 -58.38517 7480 ft 263 kts 106°
2026-05-04 01:54 -34.51791 -58.36386 9007 ft 264 kts 104°
2026-05-04 01:54 -34.52115 -58.34194 10468 ft 264 kts 95°
2026-05-04 01:55 -34.52138 -58.31975 11828 ft 264 kts 82°
2026-05-04 01:55 -34.51494 -58.29954 13133 ft 261 kts 51°
2026-05-04 01:55 -34.50127 -58.28578 14379 ft 253 kts 18°
2026-05-04 01:55 -34.48467 -58.28241 15576 ft 237 kts 345°
2026-05-04 01:56 -34.47001 -58.28965 16755 ft 223 kts 313°
2026-05-04 01:56 -34.46135 -58.30448 17969 ft 216 kts 290°
2026-05-04 01:56 -34.45656 -58.32162 19088 ft 214 kts 277°
2026-05-04 01:56 -34.45609 -58.33947 20194 ft 213 kts 262°
2026-05-04 01:57 -34.46039 -58.35661 21311 ft 215 kts 246°
2026-05-04 01:57 -34.46959 -58.37120 22419 ft 224 kts 229°
2026-05-04 01:57 -34.47827 -58.37833 23134 ft 234 kts 216°
2026-05-04 01:58 -34.53674 -58.42298 25030 ft 298 kts 248°
2026-05-04 01:58 -34.54521 -58.44735 25069 ft 328 kts 250°
2026-05-04 01:59 -34.55467 -58.47391 25075 ft 357 kts 247°
2026-05-04 01:59 -34.56625 -58.50182 25074 ft 381 kts 245°
2026-05-04 01:59 -34.57932 -58.53037 25066 ft 400 kts 239°
2026-05-04 01:59 -34.59762 -58.55684 25066 ft 419 kts 228°
2026-05-04 02:00 -34.62120 -58.57895 25060 ft 439 kts 217°
2026-05-04 02:00 -34.64922 -58.59461 25057 ft 448 kts 204°
2026-05-04 02:00 -34.67992 -58.60217 25052 ft 455 kts 192°
2026-05-04 02:00 -34.71189 -58.60114 25053 ft 463 kts 181°
2026-05-04 02:01 -34.74393 -58.59696 25050 ft 462 kts 180°
2026-05-04 02:01 -34.77577 -58.59250 25027 ft 461 kts 181°
2026-05-04 02:01 -34.80759 -58.58832 25023 ft 459 kts 181°
2026-05-04 02:01 -34.83938 -58.58437 25022 ft 458 kts 181°
2026-05-04 02:02 -34.87119 -58.58030 25027 ft 458 kts 181°
2026-05-04 02:02 -34.90291 -58.57608 25024 ft 458 kts 181°
2026-05-04 02:02 -34.93419 -58.57198 25024 ft 458 kts 181°
2026-05-04 02:02 -34.96590 -58.56789 25029 ft 458 kts 181°
2026-05-04 02:03 -34.99769 -58.56378 25029 ft 458 kts 181°
2026-05-04 02:03 -35.02950 -58.55961 25029 ft 458 kts 181°
2026-05-04 02:03 -35.06123 -58.55546 25032 ft 458 kts 181°
2026-05-04 02:03 -35.09288 -58.55134 25032 ft 458 kts 181°
2026-05-04 02:04 -35.12461 -58.54720 25033 ft 458 kts 181°
2026-05-04 02:04 -35.15593 -58.54311 25034 ft 458 kts 181°
2026-05-04 02:04 -35.18763 -58.53895 25033 ft 458 kts 181°
2026-05-04 02:04 -35.21933 -58.53481 25035 ft 458 kts 181°
2026-05-04 02:05 -35.25101 -58.53065 25037 ft 458 kts 181°
2026-05-04 02:05 -35.28273 -58.52650 25036 ft 457 kts 181°
2026-05-04 02:05 -35.31434 -58.52235 25035 ft 457 kts 181°
2026-05-04 02:05 -35.34608 -58.51818 25036 ft 457 kts 181°
2026-05-04 02:06 -35.37771 -58.51402 25036 ft 457 kts 181°
2026-05-04 02:06 -35.40898 -58.50991 25036 ft 457 kts 181°
2026-05-04 02:06 -35.44059 -58.50575 25035 ft 457 kts 181°
2026-05-04 02:06 -35.47223 -58.50157 25033 ft 457 kts 181°
2026-05-04 02:07 -35.50388 -58.49740 25038 ft 457 kts 181°
2026-05-04 02:07 -35.53550 -58.49323 25035 ft 457 kts 181°
2026-05-04 02:07 -35.56713 -58.48905 25032 ft 457 kts 181°
2026-05-04 02:07 -35.59879 -58.48487 25033 ft 457 kts 181°
2026-05-04 02:08 -35.63051 -58.48067 25031 ft 457 kts 181°
2026-05-04 02:08 -35.66208 -58.47649 25029 ft 457 kts 181°
2026-05-04 02:08 -35.69378 -58.47230 25032 ft 457 kts 181°
2026-05-04 02:08 -35.72503 -58.46815 25031 ft 457 kts 181°
2026-05-04 02:09 -35.75674 -58.46273 25026 ft 463 kts 175°
2026-05-04 02:09 -35.78818 -58.45251 25026 ft 466 kts 172°
2026-05-04 02:09 -35.81942 -58.44223 25025 ft 466 kts 172°
2026-05-04 02:09 -35.85051 -58.43224 25031 ft 466 kts 172°
2026-05-04 02:10 -35.88191 -58.42204 25029 ft 466 kts 172°
2026-05-04 02:10 -35.91341 -58.41166 25027 ft 467 kts 172°
2026-05-04 02:10 -35.94474 -58.40135 25023 ft 467 kts 172°
2026-05-04 02:10 -35.97623 -58.39108 25025 ft 467 kts 172°
2026-05-04 02:11 -36.00759 -58.38083 25029 ft 467 kts 172°
2026-05-04 02:11 -36.03906 -58.37049 25029 ft 467 kts 172°
2026-05-04 02:11 -36.07060 -58.36011 25028 ft 467 kts 172°
2026-05-04 02:11 -36.10207 -58.34978 25026 ft 468 kts 172°
2026-05-04 02:12 -36.13355 -58.33944 25022 ft 468 kts 172°
2026-05-04 02:12 -36.16479 -58.32915 25026 ft 468 kts 172°
2026-05-04 02:12 -36.19627 -58.31877 25025 ft 468 kts 172°
2026-05-04 02:12 -36.22782 -58.30836 25025 ft 469 kts 172°
2026-05-04 02:13 -36.25939 -58.29795 25021 ft 469 kts 172°
2026-05-04 02:13 -36.29093 -58.28753 25022 ft 469 kts 172°
2026-05-04 02:13 -36.32251 -58.27709 25021 ft 469 kts 172°
2026-05-04 02:13 -36.35406 -58.26665 25023 ft 469 kts 172°
2026-05-04 02:14 -36.38565 -58.25619 25018 ft 469 kts 172°
2026-05-04 02:14 -36.41724 -58.24572 25019 ft 470 kts 172°
2026-05-04 02:14 -36.44879 -58.23526 25016 ft 470 kts 172°
2026-05-04 02:14 -36.48037 -58.22478 25020 ft 466 kts 172°
2026-05-04 02:15 -36.51030 -58.21461 25012 ft 424 kts 172°
2026-05-04 02:15 -36.53767 -58.20535 23834 ft 412 kts 173°
2026-05-04 02:15 -36.56538 -58.19653 22443 ft 408 kts 173°
2026-05-04 02:15 -36.59257 -58.18758 21169 ft 400 kts 173°
2026-05-04 02:16 -36.61923 -58.17852 19938 ft 393 kts 173°
2026-05-04 02:16 -36.64550 -58.16969 18755 ft 388 kts 173°
2026-05-04 02:16 -36.67148 -58.16112 17772 ft 383 kts 173°
2026-05-04 02:16 -36.69706 -58.15261 16897 ft 378 kts 173°
2026-05-04 02:17 -36.72197 -58.14425 16043 ft 373 kts 172°
2026-05-04 02:17 -36.74694 -58.13589 15226 ft 369 kts 172°
2026-05-04 02:17 -36.77167 -58.12763 14437 ft 365 kts 172°
2026-05-04 02:17 -36.79616 -58.11945 13652 ft 362 kts 171°
2026-05-04 02:18 -36.82045 -58.11130 12859 ft 358 kts 171°
2026-05-04 02:18 -36.84434 -58.10328 12116 ft 353 kts 171°
2026-05-04 02:18 -36.86762 -58.09548 11412 ft 349 kts 170°
2026-05-04 02:18 -36.89089 -58.08767 10995 ft 339 kts 170°
2026-05-04 02:19 -36.91371 -58.08000 10987 ft 342 kts 170°
2026-05-04 02:19 -36.93671 -58.07231 10986 ft 343 kts 170°
2026-05-04 02:19 -36.95981 -58.06453 10984 ft 342 kts 170°
2026-05-04 02:19 -36.98267 -58.05681 10982 ft 339 kts 170°
2026-05-04 02:20 -37.00538 -58.04916 10980 ft 337 kts 170°
2026-05-04 02:20 -37.02763 -58.04164 10976 ft 319 kts 170°
2026-05-04 02:20 -37.04820 -58.03462 10966 ft 295 kts 171°
2026-05-04 02:20 -37.06693 -58.02628 10964 ft 279 kts 159°
2026-05-04 02:21 -37.08283 -58.01381 10964 ft 258 kts 153°
2026-05-04 02:21 -37.09718 -58.00215 10959 ft 244 kts 154°
2026-05-04 02:21 -37.11138 -57.99075 10933 ft 241 kts 154°
2026-05-04 02:21 -37.12546 -57.97929 10901 ft 241 kts 153°
2026-05-04 02:22 -37.13949 -57.96781 10880 ft 240 kts 153°
2026-05-04 02:22 -37.15356 -57.95630 10715 ft 239 kts 153°
2026-05-04 02:22 -37.16755 -57.94488 10303 ft 240 kts 153°
2026-05-04 02:22 -37.18146 -57.93350 9971 ft 237 kts 153°
2026-05-04 02:23 -37.19524 -57.92223 9596 ft 236 kts 153°
2026-05-04 02:23 -37.20897 -57.91100 9195 ft 235 kts 153°
2026-05-04 02:23 -37.22252 -57.89992 8806 ft 235 kts 153°
2026-05-04 02:23 -37.23624 -57.88868 8416 ft 235 kts 154°
2026-05-04 02:24 -37.24996 -57.87743 8029 ft 235 kts 154°
2026-05-04 02:24 -37.26366 -57.86621 7668 ft 235 kts 154°
2026-05-04 02:24 -37.27732 -57.85500 7315 ft 235 kts 154°
2026-05-04 02:24 -37.29099 -57.84379 6962 ft 234 kts 154°
2026-05-04 02:25 -37.30465 -57.83259 6613 ft 234 kts 154°
2026-05-04 02:25 -37.31831 -57.82138 6265 ft 235 kts 154°
2026-05-04 02:25 -37.33201 -57.81012 5896 ft 235 kts 154°
2026-05-04 02:25 -37.34574 -57.79884 5525 ft 236 kts 154°
2026-05-04 02:26 -37.35950 -57.78753 5188 ft 236 kts 154°
2026-05-04 02:26 -37.37327 -57.77619 4845 ft 237 kts 154°
2026-05-04 02:26 -37.38691 -57.76498 4470 ft 237 kts 153°
2026-05-04 02:26 -37.40080 -57.75354 4108 ft 237 kts 153°
2026-05-04 02:27 -37.41462 -57.74216 3760 ft 237 kts 153°
2026-05-04 02:27 -37.42842 -57.73078 3417 ft 237 kts 152°
2026-05-04 02:27 -37.44226 -57.71937 3077 ft 239 kts 152°
2026-05-04 02:27 -37.45615 -57.70792 2960 ft 235 kts 151°
2026-05-04 02:28 -37.46936 -57.69697 2945 ft 226 kts 151°
2026-05-04 02:28 -37.48229 -57.68630 2941 ft 218 kts 152°
2026-05-04 02:28 -37.49483 -57.67595 2939 ft 214 kts 152°
2026-05-04 02:28 -37.50788 -57.66527 2943 ft 232 kts 152°
2026-05-04 02:29 -37.52174 -57.65400 2954 ft 246 kts 154°
2026-05-04 02:29 -37.53668 -57.64259 2961 ft 259 kts 152°
2026-05-04 02:29 -37.55220 -57.63022 3010 ft 266 kts 152°
2026-05-04 02:29 -37.56811 -57.61765 3028 ft 273 kts 153°
2026-05-04 02:30 -37.58444 -57.60493 3028 ft 277 kts 153°
2026-05-04 02:30 -37.60094 -57.59206 3027 ft 281 kts 153°
2026-05-04 02:30 -37.61747 -57.57911 3023 ft 283 kts 153°
2026-05-04 02:30 -37.63427 -57.56594 3022 ft 285 kts 153°
2026-05-04 02:31 -37.65117 -57.55270 3019 ft 287 kts 153°
2026-05-04 02:31 -37.66818 -57.53937 3017 ft 288 kts 153°
2026-05-04 02:31 -37.68527 -57.52598 3016 ft 290 kts 153°
2026-05-04 02:31 -37.70247 -57.51249 3014 ft 292 kts 153°
2026-05-04 02:32 -37.71979 -57.49888 3016 ft 293 kts 153°
2026-05-04 02:32 -37.73717 -57.48522 3011 ft 295 kts 153°
2026-05-04 02:32 -37.75469 -57.47155 3010 ft 296 kts 153°
2026-05-04 02:32 -37.77226 -57.45790 3015 ft 297 kts 153°
2026-05-04 02:33 -37.78959 -57.44424 3014 ft 298 kts 152°
2026-05-04 02:33 -37.80716 -57.43031 3010 ft 298 kts 153°
2026-05-04 02:33 -37.82473 -57.41645 3011 ft 297 kts 153°
2026-05-04 02:33 -37.84232 -57.40259 3010 ft 297 kts 153°
2026-05-04 02:34 -37.85981 -57.38878 3010 ft 296 kts 153°
2026-05-04 02:34 -37.87730 -57.37495 3010 ft 296 kts 153°
2026-05-04 02:34 -37.89475 -57.36115 3010 ft 295 kts 153°
2026-05-04 02:34 -37.91206 -57.34772 3003 ft 293 kts 157°
2026-05-04 02:35 -37.93097 -57.34005 2988 ft 281 kts 180°
2026-05-04 02:35 -37.95023 -57.34029 2995 ft 268 kts 199°
2026-05-04 02:35 -37.96727 -57.34726 2991 ft 255 kts 216°
2026-05-04 02:35 -37.98193 -57.35926 2996 ft 247 kts 226°
2026-05-04 02:36 -37.99350 -57.37471 2995 ft 237 kts 243°
2026-05-04 02:36 -38.00072 -57.39305 2990 ft 229 kts 258°
2026-05-04 02:36 -38.00352 -57.41239 2985 ft 224 kts 271°
2026-05-04 02:36 -38.00208 -57.43190 2995 ft 221 kts 284°
2026-05-04 02:37 -37.99663 -57.44987 2773 ft 218 kts 298°
2026-05-04 02:37 -37.98808 -57.46618 2049 ft 219 kts 303°
2026-05-04 02:37 -37.98055 -57.48217 1723 ft 202 kts 302°
2026-05-04 02:37 -37.97371 -57.49697 1396 ft 189 kts 304°
2026-05-04 02:38 -37.96652 -57.51084 1059 ft 182 kts 306°
2026-05-04 02:38 -37.95968 -57.52373 891 ft 174 kts 305°
2026-05-04 02:38 -37.95366 -57.53567 640 ft 153 kts 304°
2026-05-04 02:38 -37.94810 -57.54644 423 ft 141 kts 308°
2026-05-04 02:39 -37.94273 -57.55674 224 ft 140 kts 307°
2026-05-04 02:39 -37.93751 -57.56683 52 ft 127 kts 306°
2026-05-04 02:39 -37.93300 -57.57554 46 ft 130 kts 303°
2026-05-04 02:39 -37.92616 -57.58825 484 ft 213 kts 308°
2026-05-04 02:40 -37.91538 -57.60316 1930 ft 240 kts 320°
2026-05-04 02:40 -37.90021 -57.61170 3305 ft 253 kts 343°
2026-05-04 02:40 -37.88266 -57.60672 3460 ft 275 kts 23°
2026-05-04 02:40 -37.86887 -57.58862 3235 ft 300 kts 52°
2026-05-04 02:41 -37.86263 -57.57268 3029 ft 310 kts 61°
2026-05-04 02:41 -37.85869 -57.54573 2995 ft 316 kts 88°
2026-05-04 02:41 -37.86364 -57.51872 2991 ft 316 kts 113°
2026-05-04 02:41 -37.87448 -57.49478 2998 ft 311 kts 124°
2026-05-04 02:42 -37.88903 -57.46367 3000 ft 308 kts 117°
2026-05-04 02:42 -37.89522 -57.44711 2997 ft 308 kts 114°
2026-05-04 02:42 -37.90388 -57.42241 2997 ft 307 kts 114°
2026-05-04 02:42 -37.91309 -57.39803 2998 ft 306 kts 116°
2026-05-04 02:43 -37.92348 -57.37461 2982 ft 303 kts 129°
2026-05-04 02:43 -37.93896 -57.35785 2986 ft 293 kts 158°
2026-05-04 02:43 -37.95796 -57.35151 2996 ft 275 kts 187°
2026-05-04 02:43 -37.97611 -57.35541 2993 ft 258 kts 210°
2026-05-04 02:44 -37.99094 -57.36665 2988 ft 242 kts 230°
2026-05-04 02:44 -38.00121 -57.38279 2997 ft 231 kts 248°
2026-05-04 02:44 -38.00646 -57.40158 2995 ft 223 kts 264°
2026-05-04 02:44 -38.00671 -57.42090 2650 ft 211 kts 282°
2026-05-04 02:45 -38.00259 -57.43789 2367 ft 194 kts 297°
2026-05-04 02:45 -37.99573 -57.45201 2116 ft 180 kts 304°
2026-05-04 02:45 -37.98911 -57.46497 1877 ft 170 kts 304°
2026-05-04 02:45 -37.98293 -57.47720 1651 ft 160 kts 304°
2026-05-04 02:46 -37.97738 -57.48818 1433 ft 133 kts 305°
2026-05-04 02:46 -37.97279 -57.49725 1256 ft 117 kts 306°
2026-05-04 02:46 -37.96827 -57.50612 1092 ft 125 kts 305°
2026-05-04 02:46 -37.96303 -57.51634 924 ft 156 kts 305°
2026-05-04 02:47 -37.95691 -57.52837 738 ft 164 kts 306°
2026-05-04 02:47 -37.95107 -57.54001 452 ft 150 kts 305°
2026-05-04 02:47 -37.94544 -57.55131 286 ft 155 kts 307°
2026-05-04 02:47 -37.93999 -57.56211 93 ft 138 kts 307°
2026-05-04 02:48 -37.93523 -57.57133 47 ft 111 kts 304°
2026-05-04 02:48 -37.93151 -57.57833 48 ft 54 kts 301°
2026-05-04 02:48 -37.93163 -57.57987 48 ft 17 kts 213°
2026-05-04 02:48 -37.93235 -57.58055 48 ft 9 kts 258°
2026-05-04 02:49 -37.93232 -57.58074 48 ft 3 kts 297°
2026-05-04 02:49 -37.93225 -57.58090 48 ft 0 kts 299°